Torna al catalogo

FENGYUN 1C DEB

AttivoSSO
NORAD 35244·DEBRIS·🇨🇳 China

Lanciato May 10, 1999 da Taiyuan Satellite Launch Center

Loading…

Prossimi Passaggi (prossime 24 ore)

TLE

AggiornatoSource: Space-Track

Epoca: Sep 14, 2026, 13:58 UTC

1 35244U 99025DRC 26257.58196164  .00000370  00000-0  24077-3 0  9998
2 35244  98.8121 296.1654 0072239 102.6813 258.2444 14.07082657697007

Traccia FENGYUN 1C DEB in tempo reale con AllMySat

Download on the App Store